#timestamp,LO_Frequency,Hit,StdDev 
1644699615.1,286047004.6,N
1644699616.0,286047004.6,N
1644699635.8,286047003.1,N
1644699655.6,286047001.7,N
1644699675.5,286047003.6,N
1644699695.3,286046999.5,N
1644699715.2,286046996.5,N
1644699735.9,286047002.1,N
1644699755.7,286047002.6,N
1644699775.6,286047004.3,N
1644699795.4,286047005.0,N
1644699815.2,286047004.2,N
1644699835.1,286047002.5,N
1644699836.0,286047002.5,N
1644699855.8,286047003.9,N
1644699875.7,286047005.3,N
1644699895.5,286047006.4,N
1644699915.3,286047001.4,N
1644699935.2,286047000.5,N
1644699955.0,286047003.9,N
1644699955.9,286047003.9,N
1644699975.7,286047005.6,N
1644699995.6,286047004.1,N
1644700015.4,286047005.4,N
1644700035.3,286047001.6,N
1644700055.1,286047003.0,N
1644700056.0,286047003.0,N
1644700075.8,286047005.7,N
1644700095.7,286047012.1,Y
1644700115.5,286047005.4,P
1644700135.4,286047003.1,P
1644700155.2,286046998.4,N
1644700175.0,286047005.8,N
1644700175.9,286047005.8,N
1644700195.8,286047003.7,N
1644700215.6,286047003.0,N
1644700235.5,286047006.4,N
1644700255.3,286047005.5,N
1644700275.1,286047006.4,N
1644700295.9,286047008.9,Y
1644700315.7,286047013.3,P
1644700335.6,286047009.7,N
1644700355.4,286047015.2,P
1644700375.2,286047009.5,N
1644700395.1,286047009.5,N
1644700396.0,286047009.5,N
1644700415.8,286047013.8,Y
1644700435.7,286046999.9,P
1644700455.5,286047004.3,N
1644700475.3,286047002.0,N
1644700495.2,286046999.4,N
1644700515.0,286047004.1,N
1644700515.9,286047004.1,N
1644700535.8,286047004.9,N
1644700555.6,286047006.9,N
1644700575.4,286047005.9,N
1644700595.3,286047005.3,N
1644700615.1,286047005.5,N
1644700635.8,286046998.8,N
1644700655.7,286046999.9,N
1644700675.5,286046997.9,N
1644700695.4,286046995.3,N
1644700715.2,286046999.0,N
1644700735.0,286046994.1,N
1644700735.9,286046994.1,N
1644700755.8,286046999.2,N
1644700775.6,286047004.3,N
1644700795.4,286046997.2,N
1644700815.3,286046994.8,N
1644700835.1,286046992.8,N
1644700855.9,286046991.3,N
1644700875.7,286046990.2,N
1644700895.5,286046994.0,N
1644700915.4,286046991.1,N
1644700935.2,286046987.3,N
1644700955.0,286046992.2,N
1644700955.9,286046992.2,N
1644700975.8,286046990.2,N
1644700995.6,286046989.1,N
1644701015.5,286046996.0,N
1644701035.3,286046992.6,N
1644701055.1,286046993.5,N
1644701075.9,286046995.5,N
1644701095.7,286046998.7,N
1644701115.5,286046996.7,N
1644701135.4,286046996.2,N
1644701155.2,286046993.7,N
1644701175.1,286046992.5,N
1644701176.0,286046992.5,N
1644701195.8,286046991.4,N
1644701215.6,286046993.7,N
1644701235.5,286046997.2,N
1644701255.3,286047005.9,N
1644701275.1,286047000.5,N
1644701295.9,286046997.8,N
1644701315.7,286047002.5,N
1644701335.6,286047000.3,N
1644701355.4,286047005.2,N
1644701375.2,286047005.1,N
1644701395.1,286047008.4,N
1644701396.0,286047008.4,N
1644701415.8,286047005.0,N
1644701435.6,286047005.6,N
1644701455.5,286047005.6,N
1644701475.3,286047007.3,N
1644701495.2,286047006.8,N
1644701515.9,286047003.9,N
1644701535.7,286047005.8,N
1644701555.6,286047013.0,N
1644701575.4,286047016.5,N
1644701595.2,286047015.9,N
1644701615.1,286047018.1,N
1644701616.0,286047018.1,N
1644701635.8,286047023.3,Y
1644701655.7,286047020.6,P
1644701675.5,286047020.1,N
1644701695.3,286047024.5,P
1644701715.2,286047022.3,N
1644701735.0,286047023.1,Y
1644701735.9,286047023.1,P
1644701755.7,286047001.1,N
1644701775.6,286047000.1,N
1644701795.4,286047005.2,N
1644701815.3,286047003.0,N
1644701835.1,286047002.9,N
1644701855.8,286047008.7,N
1644701875.7,286047004.3,N
1644701895.5,286047001.7,N
1644701915.4,286046999.1,N
1644701935.2,286047000.6,N
1644701955.0,286046997.1,N
1644701955.9,286046997.1,N
1644701975.8,286046997.0,N
1644701995.6,286046996.5,N
1644702015.5,286046994.6,N
1644702035.3,286046993.4,N
1644702055.1,286046999.9,N
1644702075.9,286047002.4,N
1644702095.7,286047004.7,N
1644702115.5,286047003.8,N
1644702135.4,286047003.9,N
1644702155.2,286047004.3,N
1644702175.1,286046999.4,N
1644702176.0,286046999.4,N
1644702195.8,286046999.0,N
1644702215.6,286046991.3,N
1644702235.5,286046989.1,N
1644702255.3,286046991.0,N
1644702275.1,286046993.4,N
1644702295.9,286046991.7,N
1644702315.7,286046992.3,N
1644702335.6,286046992.3,N
1644702355.4,286046992.6,N
1644702375.2,286046993.0,N
1644702395.1,286046998.4,N
1644702396.0,286046998.4,N
1644702415.8,286046997.3,N
1644702435.6,286046996.8,N
1644702455.5,286046992.1,N
1644702475.3,286046991.9,N
1644702495.2,286046990.4,N
1644702515.9,286047042.9,Y
1644702535.7,286046995.8,P
1644702555.6,286046995.7,P
1644702575.4,286046992.4,P
1644702595.3,286046996.1,N
1644702615.1,286046993.3,Y
1644702616.0,286046993.3,P
1644702635.8,286046998.4,N
1644702655.7,286046998.9,N
1644702675.5,286047011.9,Y
1644702695.3,286047000.6,P
1644702715.2,286047001.3,N
1644702735.0,286047002.4,N
1644702735.9,286047002.4,N
1644702755.8,286047000.1,N
1644702775.6,286047003.5,N
1644702795.4,286047007.2,Y
1644702815.3,286047002.1,P
1644702835.1,286047004.3,P
1644702855.9,286047002.9,N
1644702875.7,286047004.3,Y
1644702895.5,286046996.9,P
1644702915.4,286047001.1,N
1644702935.2,286046999.9,N
1644702955.0,286047001.4,N
1644702955.9,286047001.4,N
1644702975.8,286047004.2,N
1644702995.6,286047000.6,N
1644703015.5,286046998.5,N
1644703035.3,286046993.3,Y
1644703055.1,286047002.2,P
1644703075.9,286047001.9,N
1644703095.7,286046998.4,N
1644703115.6,286046998.7,N
1644703135.4,286047001.3,N
1644703155.2,286047007.5,Y
1644703175.1,286047002.8,P
1644703176.0,286047002.8,N
1644703195.8,286047008.3,P
